Flag for Dominican Republic Weather past 2 weeks in Santiago de los Caballeros, Dominican Republic

Now
77 °F

Sprinkles. Broken clouds.


Feels Like: 79 °F
Forecast: N/A
Wind: 3 mph from North

Location: Santiago

Current Time: Jan 28, 2015 at 4:43:56 PM

Latest Report: Jan 28, 2015 at 4:00 PM


Visibility: 4 mi

Pressure: 29.95 "Hg

Humidity: 79%

Dew point: 70 °F

Location of Santiago de los CaballerosLocation

Historic Weather in Santiago de los Caballeros — Graph

°F

Santiago de los Caballeros temperature yesterday

Maximum temperature yesterday: 86 °F (at 2:00 PM)
Minimum temperature yesterday: 68 °F (at 7:00 AM)
Average temperature yesterday: 77 °F

Past Weeks' High & Low Weather Summary

 TemperatureHumidityPressure
High86 °F (Jan 14, 3:00 PM)100% (Jan 13, 11:00 PM)30.09 "Hg (Jan 13, 11:00 PM)
Low61 °F (Jan 21, 6:00 AM)49% (Jan 27, 4:00 PM)29.86 "Hg (Jan 28, 6:00 AM)
Average75 °F83%29.99 "Hg
* Reported Jan 13 3:00 PM — Jan 28 3:00 PM, Santiago de los Caballeros, Weather by CustomWeather, © 2014

Note: Actual official high and low records may vary slightly from our data, if they occured in-between our weather recording intervals... More about our weather records

Advertising

Santiago de los Caballeros weather history for previous 24 hours

 ConditionsComfort  
Time TempWeatherWind HumidityBarometerVisibility
3:00 PM
Jan 28
79 °FScattered showers. Broken clouds.3 mph74%29.95 "Hg4 mi
2:00 PM79 °FBroken clouds.7 mph74%29.98 "HgN/A
1:00 PM77 °FBroken clouds.5 mph79%30.01 "HgN/A
12:00 PM75 °FBroken clouds.6 mph83%30.01 "HgN/A
11:00 AM73 °FBroken clouds.5 mph89%30.04 "HgN/A
10:00 AM73 °FBroken clouds.7 mph89%30.04 "HgN/A
9:00 AM72 °FPartly sunny.No wind94%30.01 "HgN/A
8:00 AM72 °FPartly sunny.No wind100%29.98 "HgN/A
7:00 AM72 °FPassing clouds.No wind100%29.98 "HgN/A
6:00 AM70 °FPassing clouds.No wind100%29.86 "HgN/A
5:00 AM72 °FPassing clouds.No wind94%29.95 "HgN/A
4:00 AM72 °FPassing clouds.No wind94%29.98 "HgN/A
3:00 AM72 °FPassing clouds.No wind100%29.98 "HgN/A
2:00 AM72 °FPassing clouds.No wind100%29.98 "HgN/A
1:00 AM72 °FPassing clouds.No wind100%30.01 "HgN/A
12:00 AM72 °FPassing clouds.No wind100%30.01 "HgN/A
11:00 PM
Jan 27
72 °FRain. Mostly cloudy.No wind100%30.01 "Hg4 mi
10:00 PM72 °FLight rain. Mostly cloudy.3 mph100%30.01 "Hg4 mi
9:00 PM75 °FLight rain. Passing clouds.No wind89%29.98 "Hg4 mi
8:00 PM77 °FPassing clouds.12 mph83%29.95 "HgN/A
7:00 PM77 °FPassing clouds.6 mph74%29.98 "HgN/A
6:00 PM82 °FPartly sunny.8 mph62%29.98 "HgN/A
5:00 PM84 °FPartly sunny.7 mph58%29.89 "HgN/A
4:00 PM86 °FPartly sunny.3 mph49%29.98 "HgN/A
Weather by CustomWeather, © 2014

See weather overviewHow to use our weather pages